CZ-6A DEB, 54538

Orbit data source: Space-Track

CZ-6A DEB, 54538 is space debris in SSO originally from a launch on Fri, 11 Nov 2022 UTC launched from the Taiyaun Space Center, China (TSC). Debris objects in space refer to the collection of defunct objects orbiting the Earth. Examples of debris include non-operational satellites, rocket bodies, and fragments generated from explosions, collisions, or faulty payload assembly.

Loading next visibility...
Identifier
54538, 2022-151KN
Orbit
SSO
Country
Flag of CNCN / PRC
Related business
Manufacturer
SAST
Mission
Spacecraft
Bus & Motor
Unknown
Mass
Unknown
Launch date (UTC)
2022-11-11 (4 years ago)
Launch vehicle
Unknown
Launch site
Taiyaun Space Center, China (TSC)
Object type
Payload
Rocket body
Debris
Shape & HBR
Unknown shape, 0.1 m
Radar Cross Section
Medium (>0.1 m² and <1 m²)

Expand to show TLE details & history
Last TLE update: 15 hours ago

TLE from 15 hours ago
0 CZ-6A DEB
1 54538U 22151KN  26236.29706817 -.00000048  00000-0 -32338-5 0  9993
2 54538  98.8712 197.9919 0119506 247.6348 111.2115 13.95829704192353
Epoch: 2026-08-24T07:07Z
TLE epoch observation values (Epoch: 2026-08-24T07:07:46.689Z)
Latitude
-0.00003°
Longitude
118.46657°
Altitude
943.558 km
Speed
7.364 km/s
True Right ascension
13h 11m 58s
True Declination
0° 00' 00"
Sunlit
Object was in daylight at epoch
Visualization orbit readout
Latitude
Unknown
Longitude
Unknown
Altitude
Unknown
Speed
Unknown
Apparent Right ascension
Unknown
Apparent Declination
Unknown
Sunlit
N/A
Visualization observer readout
Local Sidereal Time
13:29:23
Azimuth
Unknown
Elevation
Unknown
Doppler factor
Unknown
Orbital elements
Apogee altitude
992.514 km
Perigee altitude
818.427 km
Semi-major axis
7,283.607 km
Eccentricity
0.01195
Inclination
98.8712°
RAAN
197.9919°
Arg. of periapsis
247.6348°
True anomaly
112.48119°
Mean anomaly
111.2115°
Eccentric anomaly
111.84704°
Mean motion
3.49159 °/min
Orbital period
103.1 mins
BSTAR
-0.0000032338
Loading maneuver chart data...
Computing Atmospheric mass density...
Loading historical data...
Loading historical data...
Loading historical data...
Loading historical data...
Loading historical data...
Loading historical data...
Loading historical data...

Documentation

Showing up to 5 results
|